Terug naar catalogus

STARLINK-38107

ActiefCommunicatieVLEO
NORAD 100004·PAYLOAD·🇺🇸 United States

Gelanceerd Jul 14, 2026 vanaf Vandenberg Space Force Base

Loading…

Volgende Passages (komende 24 uur)

TLE

VersSource: Space-Track

Epoch: Sep 14, 2026, 21:03 UTC

1 A0004U 26160D   26257.87749315  .00458154  00000-0  25806-2 0  9995
2 A0004  70.0017 210.9538 0003488 254.8737 105.2077 15.77773949 11102

Volg STARLINK-38107 in realtime met AllMySat

Download on the App Store